Location: Lombard
(41.8800°N, 88.0080°W)
Time: 12:45:10
(UTC-05:00)

ZACube-1 - Visible Passes

Search period start: 17 May 2022 00:00
Search period end: 27 May 2022 00:00
Orbit: 581 x 663 km, 97.6° (Epoch: 16 May)

Date Brightness Start Highest point End Pass type
(mag) Time Alt. Az. Time Alt. Az. Time Alt. Az.
17 May ? 04:43:56 10° NNE 04:48:03 65° E 04:52:07 10° S visible
19 May ? 03:45:22 10° ENE 03:47:29 14° E 03:49:35 10° ESE visible
20 May ? 04:02:24 10° NE 04:05:35 21° E 04:08:46 10° SE visible
21 May ? 04:19:54 10° NNE 04:23:40 34° E 04:27:25 10° SSE visible
22 May ? 04:37:37 10° NNE 04:41:41 55° E 04:45:43 10° S visible
24 May ? 03:39:30 10° ENE 03:41:02 12° E 03:42:33 10° ESE visible
25 May ? 03:56:12 10° NE 03:59:08 19° E 04:02:05 10° SE visible
26 May ? 04:13:34 10° NE 04:17:12 29° E 04:20:50 10° SSE visible
